OPS 7218 (TRANSIT 16) 1 02807U 67048A 10067.41680073 +.00000074 +00000-0 +10000-3 0 03747 2 02807 089.6667 194.6803 0019652 191.8265 168.2427 13.49732025106268 OPS 4947 (TRANSIT 17) 1 02965U 67092A 10067.64870736 +.00000078 +00000-0 +10000-3 0 06515 2 02965 089.2428 102.8966 0049456 024.9487 335.4041 13.52439754092869 OPS 7034 (TRANSIT 18) 1 03133U 68012A 10067.57828685 +.00000074 +00000-0 +10000-3 0 05070 2 03133 089.9704 286.0967 0073437 279.5325 079.7533 13.50546949068244 NNSS 19 (TRANSIT 19) 1 04507U 70067A 10067.70839495 +.00000113 +00000-0 +14691-3 0 01783 2 04507 089.8564 308.0349 0174370 039.3374 322.0280 13.50157910945373 NNSS 20 (TRANSIT 20) 1 06909U 73081A 10067.87253009 +.00000130 +00000-0 +12429-3 0 06151 2 06909 089.8661 354.2270 0160176 037.0644 324.1459 13.69778943015294 TRANSAT 1 10457U 77106A 10067.80243341 +.00000072 +00000-0 +10000-3 0 09923 2 10457 089.6836 240.3132 0023692 226.0399 133.8798 13.48274918591626 NOVA 1 1 12458U 81044A 10067.73201779 +.00000050 +00000-0 +10000-3 0 09750 2 12458 090.0754 118.0571 0015792 128.7320 231.5209 13.22711367390813 NOVA 3 1 15362U 84110A 10067.52218575 +.00000050 +00000-0 +10000-3 0 00877 2 15362 089.9841 050.3137 0032295 358.8631 001.2420 13.22490279226044 OSCAR 30 1 15935U 85066A 10067.95307459 +.00000036 +00000-0 +45528-4 0 05526 2 15935 090.0618 024.2490 0170709 118.8492 242.9904 13.35273793196039 OSCAR 24 1 15936U 85066B 10065.30216637 .00000156 00000-0 26546-3 0 9403 2 15936 090.0529 021.0553 0171451 129.3187 232.3296 13.35170919197808 POLAR BEAR 1 17070U 86088A 10065.55331494 .00000058 00000-0 48932-4 0 120 2 17070 089.5292 096.9039 0037605 196.0781 163.9194 13.74353684168676 OSCAR 27 1 18361U 87080A 10067.45188142 +.00000069 +00000-0 +10000-3 0 06052 2 18361 090.3359 242.2721 0106783 143.4323 217.4177 13.44088001102129 OSCAR 29 1 18362U 87080B 10067.65083251 +.00000069 +00000-0 +10000-3 0 08658 2 18362 090.3363 242.4096 0108158 154.1347 206.5263 13.43712582101913 OSCAR 23 1 19070U 88033A 10067.87431903 +.00000056 +00000-0 +10000-3 0 07328 2 19070 090.2598 191.4910 0189587 345.2057 014.3573 13.27115702058949 OSCAR 32 1 19071U 88033B 10067.74921242 +.00000056 +00000-0 +10000-3 0 04568 2 19071 090.2604 191.5707 0187961 337.4852 021.8120 13.27319844059094 NOVA 2 1 19223U 88052A 10067.76819422 +.00000051 +00000-0 +10000-3 0 06327 2 19223 090.0120 091.1911 0032171 039.0125 321.3334 13.22425792048612 OSCAR 25 1 19419U 88074A 10067.75641738 +.00000068 +00000-0 +10000-3 0 08500 2 19419 089.9250 029.3205 0098456 101.6892 259.5314 13.41819933054313 OSCAR 31 1 19420U 88074B 10067.69830024 +.00000068 +00000-0 +10000-3 0 05296 2 19420 089.9250 029.2580 0096760 096.6408 264.5750 13.41871807054400